Time,TemperatureF,DewpointF,PressureIn,WindDirection,WindDirectionDegrees,WindSpeedMPH,WindSpeedGustMPH,Humidity,HourlyPrecipIn,Conditions,Clouds,dailyrainin,SoftwareType,DateUTC
2013-04-21 00:02:00,47.8,45.9,30.06,SSE,167,4.0,10.0,93,0.00,,,0.00,meteohub,2013-04-21 07:02:00,
2013-04-21 00:07:00,47.8,45.9,30.05,SSE,148,1.0,8.0,93,0.00,,,0.00,meteohub,2013-04-21 07:07:00,
2013-04-21 00:12:00,47.8,45.9,30.05,SE,144,5.0,10.0,93,0.00,,,0.00,meteohub,2013-04-21 07:12:00,
2013-04-21 00:17:00,47.8,45.9,30.05,SE,129,2.0,10.0,93,0.00,,,0.00,meteohub,2013-04-21 07:17:00,
2013-04-21 00:22:00,47.8,45.9,30.05,South,178,2.0,10.0,93,0.00,,,0.00,meteohub,2013-04-21 07:22:00,
2013-04-21 00:27:00,47.8,45.9,30.06,ENE,76,0.0,8.0,93,0.00,,,0.00,meteohub,2013-04-21 07:27:00,
2013-04-21 00:32:00,47.8,45.9,30.06,South,169,0.0,8.0,93,0.00,,,0.00,meteohub,2013-04-21 07:32:00,
2013-04-21 00:37:00,47.8,45.9,30.05,South,185,4.0,7.0,93,0.00,,,0.00,meteohub,2013-04-21 07:37:00,
2013-04-21 00:42:00,47.8,45.9,30.05,SE,135,1.0,6.0,93,0.00,,,0.00,meteohub,2013-04-21 07:42:00,
2013-04-21 00:47:00,48.0,46.0,30.05,SSW,207,3.0,9.0,93,0.00,,,0.00,meteohub,2013-04-21 07:47:00,
2013-04-21 00:52:00,48.0,46.0,30.06,ESE,111,1.0,9.0,93,0.00,,,0.00,meteohub,2013-04-21 07:52:00,
2013-04-21 00:57:00,48.0,46.0,30.05,SSE,148,2.0,9.0,93,0.00,,,0.00,meteohub,2013-04-21 07:57:00,
2013-04-21 01:02:00,48.0,46.0,30.05,ESE,113,2.0,6.0,93,0.00,,,0.00,meteohub,2013-04-21 08:02:00,
2013-04-21 01:07:00,48.0,46.0,30.06,ESE,118,1.0,9.0,93,0.00,,,0.00,meteohub,2013-04-21 08:07:00,
2013-04-21 01:12:00,48.0,46.0,30.06,SE,126,0.0,9.0,93,0.00,,,0.00,meteohub,2013-04-21 08:12:00,
2013-04-21 01:17:00,47.8,45.9,30.06,SSE,148,1.0,4.0,93,0.00,,,0.00,meteohub,2013-04-21 08:17:00,
2013-04-21 01:22:00,47.8,45.9,30.05,SE,142,5.0,5.0,93,0.00,,,0.00,meteohub,2013-04-21 08:22:00,
2013-04-21 01:27:00,47.8,45.9,30.05,SSE,148,0.0,5.0,93,0.00,,,0.00,meteohub,2013-04-21 08:27:00,
2013-04-21 01:32:00,47.8,45.9,30.05,SE,130,3.0,5.0,93,0.00,,,0.00,meteohub,2013-04-21 08:32:00,
2013-04-21 01:37:00,47.8,45.9,30.04,SE,142,2.0,5.0,93,0.00,,,0.00,meteohub,2013-04-21 08:37:00,
2013-04-21 01:42:00,47.8,45.9,30.04,SE,133,0.0,4.0,93,0.00,,,0.00,meteohub,2013-04-21 08:42:00,
2013-04-21 01:47:00,47.8,45.9,30.04,SE,132,0.0,4.0,93,0.00,,,0.00,meteohub,2013-04-21 08:47:00,
2013-04-21 01:52:00,47.7,45.7,30.04,SE,133,1.0,4.0,93,0.00,,,0.00,meteohub,2013-04-21 08:52:00,
2013-04-21 01:57:00,47.7,45.7,30.04,SE,134,1.0,3.0,93,0.00,,,0.00,meteohub,2013-04-21 08:57:00,
2013-04-21 02:02:00,47.7,45.7,30.04,SSE,150,2.0,3.0,93,0.00,,,0.00,meteohub,2013-04-21 09:02:00,
2013-04-21 02:07:00,47.7,45.7,30.04,SSE,154,1.0,3.0,93,0.00,,,0.00,meteohub,2013-04-21 09:07:00,
2013-04-21 02:12:00,47.8,45.9,30.04,East,94,1.0,3.0,93,0.00,,,0.00,meteohub,2013-04-21 09:12:00,
2013-04-21 02:17:00,47.8,45.9,30.04,East,101,0.0,3.0,93,0.00,,,0.00,meteohub,2013-04-21 09:17:00,
2013-04-21 02:22:00,47.8,45.9,30.04,SSE,148,0.0,3.0,93,0.00,,,0.00,meteohub,2013-04-21 09:22:00,
2013-04-21 02:27:00,47.8,45.9,30.04,SSE,148,0.0,3.0,93,0.00,,,0.00,meteohub,2013-04-21 09:27:00,
2013-04-21 02:32:00,47.7,45.7,30.04,SSE,148,0.0,3.0,93,0.00,,,0.00,meteohub,2013-04-21 09:32:00,
2013-04-21 02:37:00,47.7,45.7,30.04,SSE,148,0.0,2.0,93,0.00,,,0.00,meteohub,2013-04-21 09:37:00,
2013-04-21 02:42:00,47.5,45.5,30.04,SSE,148,0.0,1.0,93,0.00,,,0.00,meteohub,2013-04-21 09:42:00,
2013-04-21 02:47:00,47.3,45.3,30.04,SSE,148,0.0,1.0,93,0.00,,,0.00,meteohub,2013-04-21 09:47:00,
2013-04-21 02:52:00,47.3,45.3,30.03,SSE,148,0.0,0.0,93,0.00,,,0.00,meteohub,2013-04-21 09:52:00,
2013-04-21 02:57:00,47.1,45.1,30.03,SSE,148,0.0,0.0,93,0.00,,,0.00,meteohub,2013-04-21 09:57:00,
2013-04-21 03:02:00,46.9,45.0,30.03,SSE,148,0.0,0.0,93,0.00,,,0.00,meteohub,2013-04-21 10:02:00,
2013-04-21 03:07:00,47.1,45.1,30.03,SSE,148,0.0,0.0,93,0.00,,,0.00,meteohub,2013-04-21 10:07:00,
2013-04-21 03:12:00,46.9,45.0,30.03,SSE,148,0.0,0.0,93,0.00,,,0.00,meteohub,2013-04-21 10:12:00,
2013-04-21 03:17:00,46.9,45.0,30.03,SSE,148,0.0,2.0,93,0.00,,,0.00,meteohub,2013-04-21 10:17:00,
2013-04-21 03:22:00,46.9,45.0,30.02,SSE,148,0.0,2.0,93,0.00,,,0.00,meteohub,2013-04-21 10:22:00,
2013-04-21 03:27:00,47.1,45.5,30.02,SSE,148,0.0,2.0,94,0.00,,,0.00,meteohub,2013-04-21 10:27:00,
2013-04-21 03:32:00,48.6,46.9,30.03,WNW,284,1.0,3.0,94,0.00,,,0.00,meteohub,2013-04-21 10:32:00,
2013-04-21 03:37:00,49.8,47.7,30.03,WNW,284,0.0,3.0,92,0.00,,,0.00,meteohub,2013-04-21 10:37:00,
2013-04-21 03:42:00,50.2,47.3,30.02,WNW,284,0.0,3.0,90,0.00,,,0.00,meteohub,2013-04-21 10:42:00,
2013-04-21 03:47:00,50.4,47.3,30.02,WNW,284,1.0,2.0,89,0.00,,,0.00,meteohub,2013-04-21 10:47:00,
2013-04-21 03:52:00,50.9,47.1,30.02,WNW,298,1.0,2.0,87,0.00,,,0.00,meteohub,2013-04-21 10:52:00,
2013-04-21 03:57:00,51.3,46.9,30.03,WNW,294,2.0,4.0,85,0.00,,,0.00,meteohub,2013-04-21 10:57:00,
2013-04-21 04:02:00,51.4,46.8,30.03,WNW,293,0.0,4.0,84,0.00,,,0.00,meteohub,2013-04-21 11:02:00,
2013-04-21 04:07:00,51.6,46.6,30.02,WNW,288,0.0,4.0,83,0.00,,,0.00,meteohub,2013-04-21 11:07:00,
2013-04-21 04:12:00,51.4,46.4,30.02,West,276,2.0,4.0,83,0.00,,,0.00,meteohub,2013-04-21 11:12:00,
2013-04-21 04:17:00,51.3,46.6,30.01,SSW,197,4.0,4.0,84,0.00,,,0.00,meteohub,2013-04-21 11:17:00,
2013-04-21 04:22:00,52.2,47.8,30.01,South,177,2.0,4.0,85,0.00,,,0.00,meteohub,2013-04-21 11:22:00,
2013-04-21 04:27:00,52.9,47.8,30.01,South,182,1.0,4.0,83,0.00,,,0.00,meteohub,2013-04-21 11:27:00,
2013-04-21 04:32:00,54.1,47.8,30.01,South,188,1.0,4.0,79,0.00,,,0.00,meteohub,2013-04-21 11:32:00,
2013-04-21 04:37:00,54.5,47.1,30.01,South,188,0.0,4.0,76,0.00,,,0.00,meteohub,2013-04-21 11:37:00,
2013-04-21 04:42:00,54.9,47.5,30.01,South,186,1.0,4.0,76,0.00,,,0.00,meteohub,2013-04-21 11:42:00,
2013-04-21 04:47:00,55.0,47.3,30.01,South,180,0.0,3.0,75,0.00,,,0.00,meteohub,2013-04-21 11:47:00,
2013-04-21 04:52:00,55.6,47.5,30.01,South,180,0.0,4.0,74,0.00,,,0.00,meteohub,2013-04-21 11:52:00,
2013-04-21 04:57:00,55.9,46.8,30.01,South,182,0.0,4.0,71,0.00,,,0.00,meteohub,2013-04-21 11:57:00,
2013-04-21 05:02:00,56.3,46.6,30.01,South,182,0.0,4.0,70,0.00,,,0.00,meteohub,2013-04-21 12:02:00,
2013-04-21 05:07:00,55.2,46.0,30.01,South,182,0.0,3.0,71,0.00,,,0.00,meteohub,2013-04-21 12:07:00,
2013-04-21 05:12:00,54.0,46.2,30.01,South,182,0.0,3.0,75,0.00,,,0.00,meteohub,2013-04-21 12:12:00,
2013-04-21 05:17:00,53.1,46.0,30.01,West,279,3.0,3.0,77,0.00,,,0.00,meteohub,2013-04-21 12:17:00,
2013-04-21 05:22:00,52.7,46.4,30.02,West,279,0.0,3.0,79,0.00,,,0.00,meteohub,2013-04-21 12:22:00,
2013-04-21 05:27:00,52.5,46.6,30.02,NW,313,0.0,3.0,80,0.00,,,0.00,meteohub,2013-04-21 12:27:00,
2013-04-21 05:32:00,52.7,47.1,30.01,NW,312,0.0,3.0,81,0.00,,,0.00,meteohub,2013-04-21 12:32:00,
2013-04-21 05:37:00,52.9,46.9,30.01,NW,312,0.0,3.0,80,0.00,,,0.00,meteohub,2013-04-21 12:37:00,
2013-04-21 05:42:00,53.4,47.1,30.01,WSW,240,1.0,3.0,79,0.00,,,0.00,meteohub,2013-04-21 12:42:00,
2013-04-21 05:47:00,54.0,47.3,30.01,WSW,240,2.0,3.0,78,0.00,,,0.00,meteohub,2013-04-21 12:47:00,
2013-04-21 05:52:00,54.7,47.3,30.02,WSW,240,0.0,3.0,76,0.00,,,0.00,meteohub,2013-04-21 12:52:00,
2013-04-21 05:57:00,54.7,46.9,30.01,WSW,240,1.0,3.0,75,0.00,,,0.00,meteohub,2013-04-21 12:57:00,
2013-04-21 06:02:00,54.7,46.9,30.01,WSW,240,0.0,3.0,75,0.00,,,0.00,meteohub,2013-04-21 13:02:00,
2013-04-21 06:07:00,54.3,46.9,30.01,WSW,240,0.0,3.0,76,0.00,,,0.00,meteohub,2013-04-21 13:07:00,
2013-04-21 06:12:00,54.3,46.9,30.02,WSW,240,1.0,3.0,76,0.00,,,0.00,meteohub,2013-04-21 13:12:00,
2013-04-21 06:17:00,54.3,46.9,30.02,WSW,240,0.0,2.0,76,0.00,,,0.00,meteohub,2013-04-21 13:17:00,
2013-04-21 06:22:00,54.7,47.3,30.02,WSW,240,1.0,2.0,76,0.00,,,0.00,meteohub,2013-04-21 13:22:00,
2013-04-21 06:27:00,54.9,47.5,30.02,SSW,209,1.0,3.0,76,0.00,,,0.00,meteohub,2013-04-21 13:27:00,
2013-04-21 06:32:00,54.9,47.1,30.02,SSW,209,0.0,4.0,75,0.00,,,0.00,meteohub,2013-04-21 13:32:00,
2013-04-21 06:37:00,54.7,47.3,30.03,SSW,209,2.0,4.0,76,0.00,,,0.00,meteohub,2013-04-21 13:37:00,
2013-04-21 06:42:00,54.7,47.3,30.03,SSW,209,1.0,3.0,76,0.00,,,0.00,meteohub,2013-04-21 13:42:00,
2013-04-21 06:47:00,54.5,47.1,30.03,SSW,209,2.0,3.0,76,0.00,,,0.00,meteohub,2013-04-21 13:47:00,
2013-04-21 06:52:00,54.7,47.7,30.04,SSW,209,0.0,3.0,77,0.00,,,0.00,meteohub,2013-04-21 13:52:00,
2013-04-21 06:57:00,55.0,47.7,30.04,SSW,209,1.0,3.0,76,0.00,,,0.00,meteohub,2013-04-21 13:57:00,
2013-04-21 07:02:00,55.6,47.8,30.04,SSE,165,2.0,3.0,75,0.00,,,0.00,meteohub,2013-04-21 14:02:00,
2013-04-21 07:07:00,56.1,48.4,30.04,SSE,167,2.0,4.0,75,0.00,,,0.00,meteohub,2013-04-21 14:07:00,
2013-04-21 07:12:00,56.7,48.4,30.04,SSE,167,0.0,4.0,74,0.00,,,0.00,meteohub,2013-04-21 14:12:00,
2013-04-21 07:17:00,57.0,48.4,30.04,SSE,167,0.0,4.0,73,0.00,,,0.00,meteohub,2013-04-21 14:17:00,
2013-04-21 07:22:00,57.4,48.7,30.05,SSE,167,0.0,3.0,73,0.00,,,0.00,meteohub,2013-04-21 14:22:00,
2013-04-21 07:27:00,57.6,48.9,30.05,SSE,167,0.0,3.0,73,0.00,,,0.00,meteohub,2013-04-21 14:27:00,
2013-04-21 07:32:00,57.9,48.9,30.05,SSE,167,0.0,3.0,72,0.00,,,0.00,meteohub,2013-04-21 14:32:00,
2013-04-21 07:37:00,58.5,49.1,30.05,SSE,167,0.0,1.0,71,0.00,,,0.00,meteohub,2013-04-21 14:37:00,
2013-04-21 07:42:00,58.6,49.3,30.05,SSE,167,2.0,2.0,71,0.00,,,0.00,meteohub,2013-04-21 14:42:00,
2013-04-21 07:47:00,58.8,49.5,30.06,SSE,167,0.0,3.0,71,0.00,,,0.00,meteohub,2013-04-21 14:47:00,
2013-04-21 07:52:00,59.4,50.0,30.06,SSE,166,1.0,3.0,71,0.00,,,0.00,meteohub,2013-04-21 14:52:00,
2013-04-21 07:57:00,59.4,49.6,30.06,SSE,166,0.0,3.0,70,0.00,,,0.00,meteohub,2013-04-21 14:57:00,
2013-04-21 08:02:00,59.5,49.8,30.06,SSE,167,0.0,2.0,70,0.00,,,0.00,meteohub,2013-04-21 15:02:00,
2013-04-21 08:07:00,59.5,49.3,30.06,SSE,166,2.0,3.0,69,0.00,,,0.00,meteohub,2013-04-21 15:07:00,
2013-04-21 08:12:00,59.9,49.6,30.06,SSE,166,0.0,3.0,69,0.00,,,0.00,meteohub,2013-04-21 15:12:00,
2013-04-21 08:17:00,60.4,49.8,30.06,SSE,166,0.0,3.0,68,0.00,,,0.00,meteohub,2013-04-21 15:17:00,
2013-04-21 08:22:00,61.3,50.4,30.06,SSE,166,0.0,3.0,67,0.00,,,0.00,meteohub,2013-04-21 15:22:00,
2013-04-21 08:27:00,62.2,50.4,30.06,SSE,166,0.0,3.0,65,0.00,,,0.00,meteohub,2013-04-21 15:27:00,
2013-04-21 08:32:00,62.4,49.3,30.06,North,5,1.0,1.0,62,0.00,,,0.00,meteohub,2013-04-21 15:32:00,
2013-04-21 08:37:00,63.1,49.1,30.06,North,5,0.0,5.0,60,0.00,,,0.00,meteohub,2013-04-21 15:37:00,
2013-04-21 08:42:00,64.0,48.9,30.06,North,5,3.0,5.0,58,0.00,,,0.00,meteohub,2013-04-21 15:42:00,
2013-04-21 08:47:00,64.8,48.7,30.06,NNE,31,3.0,5.0,56,0.00,,,0.00,meteohub,2013-04-21 15:47:00,
2013-04-21 08:52:00,64.9,48.4,30.06,North,355,0.0,7.0,55,0.00,,,0.00,meteohub,2013-04-21 15:52:00,
2013-04-21 08:57:00,64.9,48.4,30.06,NE,47,4.0,7.0,55,0.00,,,0.00,meteohub,2013-04-21 15:57:00,
2013-04-21 09:02:00,65.1,49.1,30.06,NNE,26,2.0,6.0,56,0.00,,,0.00,meteohub,2013-04-21 16:02:00,
2013-04-21 09:07:00,65.7,48.6,30.06,NE,46,2.0,6.0,54,0.00,,,0.00,meteohub,2013-04-21 16:07:00,
2013-04-21 09:12:00,66.0,48.4,30.07,NE,46,2.0,5.0,53,0.00,,,0.00,meteohub,2013-04-21 16:12:00,
2013-04-21 09:17:00,65.8,49.3,30.06,NNE,19,3.0,5.0,55,0.00,,,0.00,meteohub,2013-04-21 16:17:00,
2013-04-21 09:22:00,65.8,49.3,30.07,NNE,18,1.0,5.0,55,0.00,,,0.00,meteohub,2013-04-21 16:22:00,
2013-04-21 09:27:00,66.4,49.3,30.07,NNE,18,0.0,4.0,54,0.00,,,0.00,meteohub,2013-04-21 16:27:00,
2013-04-21 09:32:00,66.7,49.6,30.07,NNE,18,0.0,4.0,54,0.00,,,0.00,meteohub,2013-04-21 16:32:00,
2013-04-21 09:37:00,66.6,49.5,30.07,North,9,3.0,3.0,54,0.00,,,0.00,meteohub,2013-04-21 16:37:00,
2013-04-21 09:42:00,66.4,49.6,30.07,North,0,0.0,5.0,55,0.00,,,0.00,meteohub,2013-04-21 16:42:00,
2013-04-21 09:47:00,67.5,50.2,30.07,North,0,1.0,5.0,54,0.00,,,0.00,meteohub,2013-04-21 16:47:00,
2013-04-21 09:52:00,67.3,50.0,30.07,North,0,2.0,4.0,54,0.00,,,0.00,meteohub,2013-04-21 16:52:00,
2013-04-21 09:57:00,67.3,50.0,30.07,North,355,1.0,4.0,54,0.00,,,0.00,meteohub,2013-04-21 16:57:00,
2013-04-21 10:02:00,67.5,50.2,30.07,North,5,3.0,5.0,54,0.00,,,0.00,meteohub,2013-04-21 17:02:00,
2013-04-21 10:07:00,68.2,50.4,30.07,North,355,0.0,5.0,53,0.00,,,0.00,meteohub,2013-04-21 17:07:00,
2013-04-21 10:12:00,68.5,50.2,30.07,East,88,1.0,5.0,52,0.00,,,0.00,meteohub,2013-04-21 17:12:00,
2013-04-21 10:17:00,70.2,48.9,30.08,ENE,57,0.0,6.0,47,0.00,,,0.00,meteohub,2013-04-21 17:17:00,
2013-04-21 10:22:00,70.3,47.5,30.08,NE,44,1.0,6.0,44,0.00,,,0.00,meteohub,2013-04-21 17:22:00,
2013-04-21 10:27:00,71.1,47.5,30.08,NE,34,0.0,6.0,43,0.00,,,0.00,meteohub,2013-04-21 17:27:00,
2013-04-21 10:32:00,70.9,49.1,30.08,NNE,32,0.0,4.0,46,0.00,,,0.00,meteohub,2013-04-21 17:32:00,
2013-04-21 10:37:00,71.8,46.2,30.08,South,181,1.0,4.0,40,0.00,,,0.00,meteohub,2013-04-21 17:37:00,
2013-04-21 10:42:00,71.4,46.6,30.08,South,189,1.0,4.0,41,0.00,,,0.00,meteohub,2013-04-21 17:42:00,
2013-04-21 10:47:00,72.3,47.3,30.08,ENE,62,2.0,4.0,41,0.00,,,0.00,meteohub,2013-04-21 17:47:00,
2013-04-21 10:52:00,72.3,47.3,30.08,NE,54,1.0,4.0,41,0.00,,,0.00,meteohub,2013-04-21 17:52:00,
2013-04-21 10:57:00,72.7,50.7,30.08,North,349,2.0,6.0,46,0.00,,,0.00,meteohub,2013-04-21 17:57:00,
2013-04-21 11:02:00,71.6,50.4,30.08,North,0,3.0,6.0,47,0.00,,,0.00,meteohub,2013-04-21 18:02:00,
2013-04-21 11:07:00,71.8,51.6,30.08,NW,308,0.0,7.0,49,0.00,,,0.00,meteohub,2013-04-21 18:07:00,
2013-04-21 11:12:00,72.3,52.2,30.08,NW,320,1.0,7.0,49,0.00,,,0.00,meteohub,2013-04-21 18:12:00,
2013-04-21 11:17:00,72.5,51.6,30.08,NNE,24,4.0,7.0,48,0.00,,,0.00,meteohub,2013-04-21 18:17:00,
2013-04-21 11:22:00,72.7,52.3,30.08,NNE,29,5.0,5.0,49,0.00,,,0.00,meteohub,2013-04-21 18:22:00,
2013-04-21 11:28:00,72.3,52.2,30.08,NNE,15,3.0,6.0,49,0.00,,,0.00,meteohub,2013-04-21 18:28:00,
2013-04-21 11:33:00,72.0,52.9,30.08,North,355,2.0,6.0,51,0.00,,,0.00,meteohub,2013-04-21 18:33:00,
2013-04-21 11:38:00,71.4,52.3,30.08,NW,305,3.0,7.0,51,0.00,,,0.00,meteohub,2013-04-21 18:38:00,
2013-04-21 11:43:00,71.2,52.2,30.07,NNW,329,4.0,7.0,51,0.00,,,0.00,meteohub,2013-04-21 18:43:00,
2013-04-21 11:48:00,71.4,52.3,30.08,North,355,5.0,7.0,51,0.00,,,0.00,meteohub,2013-04-21 18:48:00,
2013-04-21 11:53:00,71.1,52.5,30.08,WNW,301,4.0,7.0,52,0.00,,,0.00,meteohub,2013-04-21 18:53:00,
2013-04-21 11:58:00,70.9,51.8,30.08,WNW,289,1.0,7.0,51,0.00,,,0.00,meteohub,2013-04-21 18:58:00,
2013-04-21 12:03:00,70.5,50.9,30.08,NW,312,5.0,7.0,50,0.00,,,0.00,meteohub,2013-04-21 19:03:00,
2013-04-21 12:08:00,69.6,50.7,30.08,NNW,342,4.0,7.0,51,0.00,,,0.00,meteohub,2013-04-21 19:08:00,
2013-04-21 12:13:00,70.0,51.1,30.07,WNW,291,2.0,7.0,51,0.00,,,0.00,meteohub,2013-04-21 19:13:00,
2013-04-21 12:18:00,69.8,50.9,30.07,NW,310,4.0,7.0,51,0.00,,,0.00,meteohub,2013-04-21 19:18:00,
2013-04-21 12:23:00,69.8,50.9,30.07,NW,316,6.0,6.0,51,0.00,,,0.00,meteohub,2013-04-21 19:23:00,
2013-04-21 12:28:00,69.1,50.7,30.07,NNW,331,2.0,7.0,52,0.00,,,0.00,meteohub,2013-04-21 19:28:00,
2013-04-21 12:33:00,69.1,50.2,30.07,WNW,303,3.0,7.0,51,0.00,,,0.00,meteohub,2013-04-21 19:33:00,
2013-04-21 12:38:00,69.3,49.8,30.07,WNW,301,2.0,7.0,50,0.00,,,0.00,meteohub,2013-04-21 19:38:00,
2013-04-21 12:43:00,69.6,50.2,30.06,WNW,292,1.0,6.0,50,0.00,,,0.00,meteohub,2013-04-21 19:43:00,
2013-04-21 12:48:00,70.3,50.4,30.06,NW,308,2.0,6.0,49,0.00,,,0.00,meteohub,2013-04-21 19:48:00,
2013-04-21 12:53:00,70.7,50.5,30.06,NW,313,3.0,6.0,49,0.00,,,0.00,meteohub,2013-04-21 19:53:00,
2013-04-21 12:58:00,70.2,49.6,30.06,WNW,283,3.0,6.0,48,0.00,,,0.00,meteohub,2013-04-21 19:58:00,
2013-04-21 13:03:00,69.3,49.8,30.06,WSW,242,2.0,6.0,50,0.00,,,0.00,meteohub,2013-04-21 20:03:00,
2013-04-21 13:08:00,69.1,50.2,30.06,West,272,4.0,6.0,51,0.00,,,0.00,meteohub,2013-04-21 20:08:00,
2013-04-21 13:13:00,68.4,48.9,30.06,WNW,288,3.0,7.0,50,0.00,,,0.00,meteohub,2013-04-21 20:13:00,
2013-04-21 13:18:00,68.2,49.8,30.06,WSW,244,1.0,7.0,52,0.00,,,0.00,meteohub,2013-04-21 20:18:00,
2013-04-21 13:23:00,68.5,48.6,30.06,NW,315,2.0,7.0,49,0.00,,,0.00,meteohub,2013-04-21 20:23:00,
2013-04-21 13:28:00,68.4,48.9,30.05,NW,306,3.0,6.0,50,0.00,,,0.00,meteohub,2013-04-21 20:28:00,
2013-04-21 13:33:00,68.5,49.1,30.05,WNW,298,5.0,7.0,50,0.00,,,0.00,meteohub,2013-04-21 20:33:00,
2013-04-21 13:38:00,68.7,49.3,30.05,WNW,283,3.0,7.0,50,0.00,,,0.00,meteohub,2013-04-21 20:38:00,
2013-04-21 13:43:00,68.0,48.7,30.05,WNW,299,4.0,9.0,50,0.00,,,0.00,meteohub,2013-04-21 20:43:00,
2013-04-21 13:48:00,67.6,49.5,30.05,West,271,3.0,9.0,52,0.00,,,0.00,meteohub,2013-04-21 20:48:00,
2013-04-21 13:53:00,67.1,48.9,30.05,WNW,298,1.0,9.0,52,0.00,,,0.00,meteohub,2013-04-21 20:53:00,
2013-04-21 13:58:00,66.7,49.6,30.05,NW,317,3.0,9.0,54,0.00,,,0.00,meteohub,2013-04-21 20:58:00,
2013-04-21 14:03:00,67.5,50.2,30.04,NW,315,3.0,9.0,54,0.00,,,0.00,meteohub,2013-04-21 21:03:00,
2013-04-21 14:08:00,67.5,49.3,30.04,NW,313,0.0,9.0,52,0.00,,,0.00,meteohub,2013-04-21 21:08:00,
2013-04-21 14:14:00,68.0,48.2,30.04,West,272,4.0,9.0,49,0.00,,,0.00,meteohub,2013-04-21 21:14:00,
2013-04-21 14:19:00,68.4,50.0,30.04,NW,306,1.0,7.0,52,0.00,,,0.00,meteohub,2013-04-21 21:19:00,
2013-04-21 14:24:00,68.7,50.4,30.04,NW,306,4.0,7.0,52,0.00,,,0.00,meteohub,2013-04-21 21:24:00,
2013-04-21 14:29:00,67.3,50.0,30.04,NNW,330,1.0,7.0,54,0.00,,,0.00,meteohub,2013-04-21 21:29:00,
2013-04-21 14:34:00,68.4,50.0,30.04,NW,321,5.0,8.0,52,0.00,,,0.00,meteohub,2013-04-21 21:34:00,
2013-04-21 14:39:00,68.7,49.3,30.04,NW,321,1.0,8.0,50,0.00,,,0.00,meteohub,2013-04-21 21:39:00,
2013-04-21 14:44:00,68.7,49.3,30.04,WNW,294,1.0,8.0,50,0.00,,,0.00,meteohub,2013-04-21 21:44:00,
2013-04-21 14:49:00,70.0,50.0,30.04,West,264,2.0,7.0,49,0.00,,,0.00,meteohub,2013-04-21 21:49:00,
2013-04-21 14:54:00,68.5,49.6,30.04,WNW,286,3.0,7.0,51,0.00,,,0.00,meteohub,2013-04-21 21:54:00,
2013-04-21 14:59:00,68.0,49.3,30.04,NW,323,2.0,7.0,51,0.00,,,0.00,meteohub,2013-04-21 21:59:00,
2013-04-21 15:04:00,68.0,49.6,30.03,SW,225,0.0,7.0,52,0.00,,,0.00,meteohub,2013-04-21 22:04:00,
2013-04-21 15:09:00,68.7,49.8,30.03,NW,312,5.0,7.0,51,0.00,,,0.00,meteohub,2013-04-21 22:09:00,
2013-04-21 15:14:00,67.8,50.0,30.03,WNW,283,2.0,7.0,53,0.00,,,0.00,meteohub,2013-04-21 22:14:00,
2013-04-21 15:19:00,67.6,49.5,30.03,NW,322,7.0,8.0,52,0.00,,,0.00,meteohub,2013-04-21 22:19:00,
2013-04-21 15:24:00,66.6,49.5,30.03,WNW,302,4.0,8.0,54,0.00,,,0.00,meteohub,2013-04-21 22:24:00,
2013-04-21 15:29:00,66.0,48.9,30.03,WNW,300,5.0,8.0,54,0.00,,,0.00,meteohub,2013-04-21 22:29:00,
2013-04-21 15:34:00,66.6,49.5,30.03,NNW,333,4.0,8.0,54,0.00,,,0.00,meteohub,2013-04-21 22:34:00,
2013-04-21 15:39:00,65.5,48.9,30.03,West,275,4.0,8.0,55,0.00,,,0.00,meteohub,2013-04-21 22:39:00,
2013-04-21 15:44:00,64.0,48.9,30.02,SW,229,3.0,10.0,58,0.00,,,0.00,meteohub,2013-04-21 22:44:00,
2013-04-21 15:49:00,63.7,50.0,30.03,SW,219,2.0,10.0,61,0.00,,,0.00,meteohub,2013-04-21 22:49:00,
2013-04-21 15:54:00,63.7,50.0,30.03,West,274,0.0,9.0,61,0.00,,,0.00,meteohub,2013-04-21 22:54:00,
2013-04-21 15:59:00,63.5,49.3,30.02,WSW,238,3.0,8.0,60,0.00,,,0.00,meteohub,2013-04-21 22:59:00,
2013-04-21 16:04:00,63.5,49.3,30.02,West,275,1.0,9.0,60,0.00,,,0.00,meteohub,2013-04-21 23:04:00,
2013-04-21 16:09:00,62.4,48.7,30.02,WSW,245,1.0,9.0,61,0.00,,,0.00,meteohub,2013-04-21 23:09:00,
2013-04-21 16:14:00,63.3,48.7,30.02,NW,306,2.0,9.0,59,0.00,,,0.00,meteohub,2013-04-21 23:14:00,
2013-04-21 16:19:00,63.9,48.4,30.01,West,268,3.0,7.0,57,0.00,,,0.00,meteohub,2013-04-21 23:19:00,
2013-04-21 16:24:00,63.9,48.4,30.01,SSW,195,4.0,9.0,57,0.00,,,0.00,meteohub,2013-04-21 23:24:00,
2013-04-21 16:29:00,64.6,48.6,30.01,SSW,203,2.0,9.0,56,0.00,,,0.00,meteohub,2013-04-21 23:29:00,
2013-04-21 16:34:00,64.8,48.2,30.01,WNW,298,3.0,7.0,55,0.00,,,0.00,meteohub,2013-04-21 23:34:00,
2013-04-21 16:39:00,64.2,47.3,30.01,NW,305,3.0,6.0,54,0.00,,,0.00,meteohub,2013-04-21 23:39:00,
2013-04-21 16:44:00,64.6,47.5,30.01,NW,325,2.0,8.0,54,0.00,,,0.00,meteohub,2013-04-21 23:44:00,
2013-04-21 16:49:00,65.1,47.1,30.01,SSW,198,0.0,8.0,52,0.00,,,0.00,meteohub,2013-04-21 23:49:00,
2013-04-21 16:55:00,64.6,47.5,30.01,NW,311,1.0,8.0,54,0.00,,,0.00,meteohub,2013-04-21 23:55:00,
2013-04-21 17:00:00,64.6,47.1,30.00,NNW,335,2.0,6.0,53,0.00,,,0.00,meteohub,2013-04-22 00:00:00,
2013-04-21 17:05:00,64.2,47.3,30.00,WNW,286,3.0,6.0,54,0.00,,,0.00,meteohub,2013-04-22 00:05:00,
2013-04-21 17:10:00,64.4,46.9,30.00,NW,320,1.0,6.0,53,0.00,,,0.00,meteohub,2013-04-22 00:10:00,
2013-04-21 17:15:00,65.3,47.3,30.00,WSW,246,0.0,6.0,52,0.00,,,0.00,meteohub,2013-04-22 00:15:00,
2013-04-21 17:20:00,65.8,45.7,29.99,NNW,346,3.0,6.0,48,0.00,,,0.00,meteohub,2013-04-22 00:20:00,
2013-04-21 17:25:00,65.7,45.5,30.00,NW,322,1.0,6.0,48,0.00,,,0.00,meteohub,2013-04-22 00:25:00,
2013-04-21 17:30:00,65.3,46.2,29.99,SW,214,1.0,6.0,50,0.00,,,0.00,meteohub,2013-04-22 00:30:00,
2013-04-21 17:35:00,65.5,46.4,29.99,SW,217,0.0,6.0,50,0.00,,,0.00,meteohub,2013-04-22 00:35:00,
2013-04-21 17:40:00,64.8,46.2,29.99,West,273,1.0,6.0,51,0.00,,,0.00,meteohub,2013-04-22 00:40:00,
2013-04-21 17:45:00,64.6,47.5,29.99,NW,309,0.0,6.0,54,0.00,,,0.00,meteohub,2013-04-22 00:45:00,
2013-04-21 17:50:00,64.6,47.5,29.99,West,273,2.0,6.0,54,0.00,,,0.00,meteohub,2013-04-22 00:50:00,
2013-04-21 17:55:00,64.6,45.5,29.99,SSW,194,1.0,6.0,50,0.00,,,0.00,meteohub,2013-04-22 00:55:00,
2013-04-21 18:00:00,65.1,46.0,29.99,SW,215,3.0,6.0,50,0.00,,,0.00,meteohub,2013-04-22 01:00:00,
2013-04-21 18:05:00,65.1,45.5,29.99,West,271,0.0,6.0,49,0.00,,,0.00,meteohub,2013-04-22 01:05:00,
2013-04-21 18:10:00,65.1,47.1,29.99,North,355,2.0,6.0,52,0.00,,,0.00,meteohub,2013-04-22 01:10:00,
2013-04-21 18:15:00,65.5,46.4,29.99,South,188,1.0,3.0,50,0.00,,,0.00,meteohub,2013-04-22 01:15:00,
2013-04-21 18:20:00,65.5,46.4,29.98,South,182,1.0,5.0,50,0.00,,,0.00,meteohub,2013-04-22 01:20:00,
2013-04-21 18:25:00,65.1,46.0,29.98,South,188,3.0,6.0,50,0.00,,,0.00,meteohub,2013-04-22 01:25:00,
2013-04-21 18:30:00,65.5,45.3,29.98,WNW,298,0.0,6.0,48,0.00,,,0.00,meteohub,2013-04-22 01:30:00,
2013-04-21 18:35:00,65.7,45.5,29.99,WNW,300,1.0,6.0,48,0.00,,,0.00,meteohub,2013-04-22 01:35:00,
2013-04-21 18:40:00,64.9,46.9,29.98,SW,232,1.0,5.0,52,0.00,,,0.00,meteohub,2013-04-22 01:40:00,
2013-04-21 18:45:00,64.0,47.1,29.98,WSW,250,2.0,5.0,54,0.00,,,0.00,meteohub,2013-04-22 01:45:00,
2013-04-21 18:50:00,63.9,46.9,29.98,SW,229,3.0,5.0,54,0.00,,,0.00,meteohub,2013-04-22 01:50:00,
2013-04-21 18:55:00,63.9,45.9,29.98,NW,324,2.0,5.0,52,0.00,,,0.00,meteohub,2013-04-22 01:55:00,
2013-04-21 19:00:00,64.0,45.0,29.98,West,270,0.0,7.0,50,0.00,,,0.00,meteohub,2013-04-22 02:00:00,
2013-04-21 19:05:00,63.9,44.8,29.98,SW,232,0.0,7.0,50,0.00,,,0.00,meteohub,2013-04-22 02:05:00,
2013-04-21 19:10:00,63.9,44.2,29.97,NW,310,0.0,7.0,49,0.00,,,0.00,meteohub,2013-04-22 02:10:00,
2013-04-21 19:15:00,63.9,45.3,29.98,SW,222,1.0,5.0,51,0.00,,,0.00,meteohub,2013-04-22 02:15:00,
2013-04-21 19:20:00,63.1,46.8,29.98,WSW,246,2.0,5.0,55,0.00,,,0.00,meteohub,2013-04-22 02:20:00,
2013-04-21 19:25:00,62.4,46.6,29.97,SSW,198,2.0,5.0,56,0.00,,,0.00,meteohub,2013-04-22 02:25:00,
2013-04-21 19:31:00,62.1,47.1,29.97,SSW,200,5.0,5.0,58,0.00,,,0.00,meteohub,2013-04-22 02:31:00,
2013-04-21 19:36:00,60.8,48.2,29.98,South,184,2.0,6.0,63,0.00,,,0.00,meteohub,2013-04-22 02:36:00,
2013-04-21 19:41:00,60.4,46.9,29.98,SSW,196,2.0,6.0,61,0.00,,,0.00,meteohub,2013-04-22 02:41:00,
2013-04-21 19:46:00,60.4,47.3,29.97,SSW,202,1.0,6.0,62,0.00,,,0.00,meteohub,2013-04-22 02:46:00,
2013-04-21 19:51:00,60.3,47.7,29.98,SSW,211,2.0,4.0,63,0.00,,,0.00,meteohub,2013-04-22 02:51:00,
2013-04-21 19:56:00,60.1,47.8,29.98,SSW,202,4.0,5.0,64,0.00,,,0.00,meteohub,2013-04-22 02:56:00,
2013-04-21 20:01:00,59.7,47.5,29.98,SSW,195,3.0,7.0,64,0.00,,,0.00,meteohub,2013-04-22 03:01:00,
2013-04-21 20:06:00,59.9,47.3,29.98,South,187,4.0,7.0,63,0.00,,,0.00,meteohub,2013-04-22 03:06:00,
2013-04-21 20:11:00,59.5,47.8,29.98,South,190,4.0,7.0,65,0.00,,,0.00,meteohub,2013-04-22 03:11:00,
2013-04-21 20:16:00,58.8,47.8,29.98,SSW,208,6.0,8.0,67,0.00,,,0.00,meteohub,2013-04-22 03:16:00,
2013-04-21 20:21:00,58.8,46.6,29.98,South,179,1.0,8.0,64,0.00,,,0.00,meteohub,2013-04-22 03:21:00,
2013-04-21 20:26:00,59.4,46.4,29.98,South,182,1.0,8.0,62,0.00,,,0.00,meteohub,2013-04-22 03:26:00,
2013-04-21 20:31:00,58.8,47.1,29.98,SSW,194,6.0,7.0,65,0.00,,,0.00,meteohub,2013-04-22 03:31:00,
2013-04-21 20:36:00,57.9,46.6,29.98,SSW,199,5.0,7.0,66,0.00,,,0.00,meteohub,2013-04-22 03:36:00,
2013-04-21 20:41:00,56.8,46.4,29.98,SSW,204,6.0,7.0,68,0.00,,,0.00,meteohub,2013-04-22 03:41:00,
2013-04-21 20:46:00,55.6,46.8,29.98,SSW,198,4.0,7.0,72,0.00,,,0.00,meteohub,2013-04-22 03:46:00,
2013-04-21 20:51:00,55.0,46.6,29.98,South,188,6.0,8.0,73,0.00,,,0.00,meteohub,2013-04-22 03:51:00,
2013-04-21 20:56:00,54.3,46.2,29.98,SSW,199,4.0,8.0,74,0.00,,,0.00,meteohub,2013-04-22 03:56:00,
2013-04-21 21:01:00,53.8,46.4,29.99,SSW,198,3.0,9.0,76,0.00,,,0.00,meteohub,2013-04-22 04:01:00,
2013-04-21 21:02:00,53.6,46.6,29.99,South,173,4.0,9.0,77,0.00,,,0.00,meteohub,2013-04-22 04:02:00,
2013-04-21 21:07:00,53.1,46.8,29.99,SW,214,8.0,9.0,79,0.00,,,0.00,meteohub,2013-04-22 04:07:00,
2013-04-21 21:12:00,52.5,46.6,29.99,SSE,162,3.0,9.0,80,0.00,,,0.00,meteohub,2013-04-22 04:12:00,
2013-04-21 21:17:00,52.3,46.8,29.99,South,181,3.0,8.0,81,0.00,,,0.00,meteohub,2013-04-22 04:17:00,
2013-04-21 21:22:00,52.3,46.9,29.99,SSE,158,4.0,8.0,82,0.00,,,0.00,meteohub,2013-04-22 04:22:00,
2013-04-21 21:27:00,52.3,46.9,29.99,South,180,2.0,7.0,82,0.00,,,0.00,meteohub,2013-04-22 04:27:00,
2013-04-21 21:32:00,52.3,46.8,29.99,ESE,122,1.0,6.0,81,0.00,,,0.00,meteohub,2013-04-22 04:32:00,
2013-04-21 21:37:00,52.3,46.9,29.99,SE,142,1.0,6.0,82,0.00,,,0.00,meteohub,2013-04-22 04:37:00,
2013-04-21 21:42:00,52.2,47.1,29.99,SSE,148,2.0,6.0,83,0.00,,,0.00,meteohub,2013-04-22 04:42:00,
2013-04-21 21:47:00,52.3,46.9,29.99,SSE,152,2.0,4.0,82,0.00,,,0.00,meteohub,2013-04-22 04:47:00,
2013-04-21 21:52:00,52.3,46.9,29.99,SSE,149,2.0,5.0,82,0.00,,,0.00,meteohub,2013-04-22 04:52:00,
2013-04-21 21:57:00,52.3,46.9,29.99,SE,142,2.0,5.0,82,0.00,,,0.00,meteohub,2013-04-22 04:57:00,
2013-04-21 22:02:00,52.2,46.8,29.99,ESE,122,2.0,5.0,82,0.00,,,0.00,meteohub,2013-04-22 05:02:00,
2013-04-21 22:07:00,52.2,47.1,29.99,SSE,153,0.0,4.0,83,0.00,,,0.00,meteohub,2013-04-22 05:07:00,
2013-04-21 22:13:00,52.2,47.1,29.99,SSE,150,1.0,4.0,83,0.00,,,0.00,meteohub,2013-04-22 05:13:00,
2013-04-21 22:18:00,52.0,46.9,29.99,SSE,150,1.0,4.0,83,0.00,,,0.00,meteohub,2013-04-22 05:18:00,
2013-04-21 22:23:00,52.0,46.9,29.99,SSE,148,1.0,3.0,83,0.00,,,0.00,meteohub,2013-04-22 05:23:00,
2013-04-21 22:28:00,52.0,47.3,29.99,SSE,148,1.0,3.0,84,0.00,,,0.00,meteohub,2013-04-22 05:28:00,
2013-04-21 22:33:00,52.0,47.3,29.99,SSE,151,2.0,3.0,84,0.00,,,0.00,meteohub,2013-04-22 05:33:00,
2013-04-21 22:38:00,52.0,47.3,29.99,SSE,152,2.0,3.0,84,0.00,,,0.00,meteohub,2013-04-22 05:38:00,
2013-04-21 22:43:00,52.0,47.3,29.99,SE,132,1.0,3.0,84,0.00,,,0.00,meteohub,2013-04-22 05:43:00,
2013-04-21 22:48:00,51.8,47.1,29.99,SE,140,1.0,3.0,84,0.00,,,0.00,meteohub,2013-04-22 05:48:00,
2013-04-21 22:53:00,52.0,47.3,29.99,SE,140,0.0,3.0,84,0.00,,,0.00,meteohub,2013-04-22 05:53:00,
2013-04-21 22:58:00,52.2,47.5,29.99,SE,140,0.0,3.0,84,0.00,,,0.00,meteohub,2013-04-22 05:58:00,
2013-04-21 23:03:00,52.2,47.1,29.99,SE,140,2.0,3.0,83,0.00,,,0.00,meteohub,2013-04-22 06:03:00,
2013-04-21 23:08:00,52.2,47.1,29.99,SE,140,0.0,3.0,83,0.00,,,0.00,meteohub,2013-04-22 06:08:00,
2013-04-21 23:13:00,52.2,47.1,29.99,SE,144,1.0,3.0,83,0.00,,,0.00,meteohub,2013-04-22 06:13:00,
2013-04-21 23:18:00,52.2,46.8,29.99,SE,144,1.0,3.0,82,0.00,,,0.00,meteohub,2013-04-22 06:18:00,
2013-04-21 23:23:00,52.3,46.9,29.99,SE,144,0.0,3.0,82,0.00,,,0.00,meteohub,2013-04-22 06:23:00,
2013-04-21 23:28:00,52.7,47.3,29.99,SE,144,1.0,3.0,82,0.00,,,0.00,meteohub,2013-04-22 06:28:00,
2013-04-21 23:33:00,53.1,47.3,29.98,SE,144,2.0,3.0,81,0.00,,,0.00,meteohub,2013-04-22 06:33:00,
2013-04-21 23:38:00,53.2,47.5,29.99,SE,144,0.0,3.0,81,0.00,,,0.00,meteohub,2013-04-22 06:38:00,
2013-04-21 23:43:00,53.4,47.5,29.98,SE,144,1.0,3.0,80,0.00,,,0.00,meteohub,2013-04-22 06:43:00,
2013-04-21 23:48:00,54.0,47.3,29.98,SE,144,2.0,3.0,78,0.00,,,0.00,meteohub,2013-04-22 06:48:00,
2013-04-21 23:53:00,55.0,46.9,29.98,SE,144,1.0,3.0,74,0.00,,,0.00,meteohub,2013-04-22 06:53:00,
2013-04-21 23:58:00,55.2,46.8,29.98,SE,144,0.0,3.0,73,0.00,,,0.00,meteohub,2013-04-22 06:58:00,